Location: Unspecified
(43.4680°N, 87.1740°E)
Time: 04:56:28
(UTC+00:00)

Cosmos 1844 Rocket - Pass Details

Date: 17 April 2021
Orbit: 825 x 844 km, 71.0° (Epoch: 16 May)

Event Time Altitude Azimuth Distance (km) Brightness Sun altitude
Exits shadow 18:51:45 37° 33° (NNE) 1,258 3.9 -35.0°
Drops below altitude 10° 18:55:04 10° 27° (NNE) 2,435 5.8 -34.8°
Sets 18:57:30 0° 27° (NNE) 3,373 6.8 -34.7°
